星链-32166 (STARLINK-32166)

导读

STARLINK-32166是美国SpaceX公司星链(Starlink)项目中的第二代低轨通信卫星,于2024年7月27日由猎鹰9号火箭从美国肯尼迪航天中心成功发射。星链星座旨在为全球提供高速低延迟宽带互联网服务,该卫星搭载了激光星间链路,采用先进相控阵天线,依托星链全球卫星布局,可为偏远地区、移动载体提供可靠网络服务。目前已进入预定轨道,助力星链全球覆盖能力进一步拓展,服务更多终端用户。

Basic Information
目录编号:
60257
目录名称:
STARLINK-32166
国际标识:
2024-131C
轨道中心:
EARTH
卫星名称:
星链-32166 (STARLINK-32166)
卫星全名:
星链-32166 (STARLINK-32166)
卫星状态:
在轨 (已飞行690 天)
发射日期:
2024-07-27 UTC
国别 :
美国 (US)
星等 :
--
Orbit Information
数据来源 国际轨道数据 AOE轨道数据
星历时间 2026-06-17T05:37:50+0800
11小时前
查看轨道信息
2026-06-15T08:00:00+0800
2天前
查看轨道信息
半长轴 6853.372km 6853.299km
偏心率 0.0001113 0.0000646
轨道倾角 53.161° 53.158°
近地点辐角 104.937° 50.711°
升交点赤经 311.940° 320.777°
平近点角 255.175° 270.071°
近地点 474.472km 474.719km
远地点 475.998km 475.605km
周期 94.106分钟 94.104分钟
每日圈数 15.301935 15.302181
Detailed Information
卫星平台:
Starlink v2.0 mini
运营商:
太空探索技术公司
运营商所在国:
美国
制造商(研发单位):
太空探索技术公司
制造商所在国:
美国
使用方式:
暂无
Satellite Introduction
星链(Starlink)计划是由太空探索技术公司(SpaceX)提出的一个巨型低轨卫星互联网星座项目,计划在2019年至2024年间在太空搭建由约1.2万颗卫星组成的“星链”网络,其中1584颗将部署在地球上空550千米处的近地轨道,并从2020年开始工作。该卫星仍在工作。
2D Orbit Map
3D Orbit Map
Orbit Altitude Analysis Chart
Orbit Inclination Analysis Chart
Orbit Comprehensive Analysis Chart
View Comprehensive Chart